GW0870 Weather Reports


time (UTC)temp
C
wind
direction
speed
KPH
gust
KPH
rain 1hr
cm
rain 24hr
cm
rain mn
cm
humidity
%
barometer
mb
20260506224546 23 215 0.0 4.8 0.00 0.25 0.25 73 1011.9
20260506223047 23 207 0.0 6.4 0.00 0.25 0.25 74 1012.0
20260506221551 23 226 3.2 8.0 0.00 0.25 0.25 73 1011.9
20260506220049 23 0 1.6 6.4 0.00 0.25 0.25 76 1011.8
20260506214546 23 186 1.6 11.3 0.00 0.25 0.25 75 1011.9
20260506213050 23 201 3.2 11.3 0.00 0.25 0.25 75 1011.7
20260506211549 23 142 3.2 8.0 0.00 0.25 0.25 75 1011.8
20260506210051 23 188 3.2 6.4 0.00 0.25 0.25 73 1011.6
20260506204556 23 243 3.2 17.7 0.00 0.25 0.25 74 1012.0
20260506203051 23 243 4.8 14.5 0.00 0.25 0.25 73 1012.4
20260506201556 23 290 1.6 16.1 0.00 0.25 0.25 75 1012.4
20260506200107 22 109 8.0 17.7 0.00 0.25 0.25 76 1012.5
20260506194558 21 158 3.2 11.3 0.00 0.25 0.25 81 1012.4
20260506193047 20 231 1.6 11.3 0.00 0.25 0.25 81 1012.5
20260506191545 20 183 1.6 12.9 0.00 0.25 0.25 84 1012.8
20260506190046 19 235 3.2 12.9 0.00 0.25 0.25 86 1012.5
20260506184545 18 94 1.6 11.3 0.00 0.25 0.25 89 1012.8
20260506183102 17 269 1.6 11.3 0.05 0.25 0.25 90 1012.3
20260506181557 17 144 3.2 12.9 0.05 0.25 0.25 89 1012.4
20260506180041 17 140 3.2 16.1 0.25 0.25 0.25 90 1014.1
20260506174547 17 217 1.6 9.7 0.25 0.25 0.25 89 1014.5
20260506173053 17 252 3.2 8.0 0.20 0.20 0.20 86 1015.1
20260506171548 19 175 6.4 22.5 0.20 0.20 0.20 77 1015.5
20260506170050 22 244 6.4 24.1 0.00 0.00 0.00 62 1015.0
20260506164551 23 234 3.2 19.3 0.00 0.00 0.00 56 1014.1
20260506163051 23 229 6.4 14.5 0.00 0.00 0.00 53 1014.0
20260506161551 23 177 3.2 17.7 0.00 0.00 0.00 57 1014.0
20260506160117 23 201 6.4 17.7 0.00 0.00 0.00 60 1014.1
20260506154545 22 283 6.4 19.3 0.00 0.00 0.00 64 1013.8
20260506153051 21 268 6.4 14.5 0.00 0.00 0.00 68 1013.7
20260506151605 21 215 4.8 12.9 0.00 0.00 0.00 68 1013.9
20260506150051 20 227 3.2 16.1 0.00 0.00 0.00 70 1014.0
20260506144552 20 105 6.4 17.7 0.00 0.00 0.00 71 1014.1
20260506143056 20 217 1.6 14.5 0.00 0.00 0.00 71 1014.1
20260506141550 20 225 4.8 12.9 0.00 0.00 0.00 71 1014.1
20260506140106 20 159 3.2 9.7 0.00 0.00 0.00 71 1013.7
20260506134545 20 236 3.2 12.9 0.00 0.00 0.00 71 1013.8
20260506133048 18 279 3.2 11.3 0.00 0.00 0.00 73 1013.7
20260506131552 18 234 3.2 11.3 0.00 0.00 0.00 74 1013.7
20260506130049 18 130 3.2 17.7 0.00 0.00 0.00 74 1013.3
20260506124540 17 161 3.2 11.3 0.00 0.00 0.00 74 1014.0
20260506123039 17 264 3.2 11.3 0.00 0.00 0.00 74 1014.2
20260506121547 17 202 6.4 14.5 0.00 0.00 0.00 74 1014.6
20260506120044 17 279 3.2 12.9 0.00 0.00 0.00 73 1014.5
20260506114550 17 141 1.6 4.8 0.00 0.00 0.00 74 1014.1
20260506113047 16 230 1.6 9.7 0.00 0.00 0.00 74 1013.9
20260506111550 16 209 1.6 8.0 0.00 0.00 0.00 75 1013.6
20260506110056 16 237 1.6 8.0 0.00 0.00 0.00 75 1013.4
20260506104558 16 223 0.0 14.5 0.00 0.00 0.00 75 1013.3
20260506103048 16 196 3.2 9.7 0.00 0.00 0.00 75 1012.9
20260506101556 16 209 1.6 4.8 0.00 0.00 0.00 75 1013.1
20260506100045 16 148 1.6 8.0 0.00 0.00 0.00 75 1013.0
20260506094554 16 277 1.6 14.5 0.00 0.00 0.00 75 1013.1
20260506093050 16 226 1.6 12.9 0.00 0.00 0.00 74 1013.2
20260506091544 16 178 3.2 12.9 0.00 0.00 0.00 74 1013.3
20260506090049 16 294 1.6 6.4 0.00 0.00 0.00 75 1013.6
20260506084547 16 0 1.6 4.8 0.00 0.00 0.00 74 1013.8
20260506083041 16 137 1.6 9.7 0.00 0.00 0.00 74 1013.9
20260506081549 17 210 0.0 9.7 0.00 0.00 0.00 73 1013.8
20260506073050 17 132 1.6 9.7 0.00 0.00 0.00 72 1014.0
20260506071557 17 270 3.2 11.3 0.00 0.00 0.00 72 1013.7
20260506061543 17 236 3.2 16.1 0.00 0.00 0.00 71 1014.1
20260506044541 18 113 0.0 6.4 0.00 0.00 0.00 65 1014.5
20260506043040 18 141 1.6 9.7 0.00 0.00 0.00 65 1014.6
20260506041557 18 180 1.6 8.0 0.00 0.00 0.00 64 1014.4
20260506040039 19 158 0.0 9.7 0.00 0.00 0.00 63 1014.2
20260506034545 19 283 3.2 11.3 0.00 0.00 0.00 61 1014.3
20260506033042 20 242 3.2 12.9 0.00 0.00 0.00 60 1014.1
20260506031542 20 253 3.2 12.9 0.00 0.00 0.00 57 1014.1
20260506030042 20 247 1.6 12.9 0.00 0.00 0.00 55 1014.0
20260506024542 19 184 1.6 8.0 0.00 0.00 0.00 56 1014.0
20260506023046 18 0 0.0 4.8 0.00 0.00 0.00 58 1014.3
20260506021545 18 0 0.0 6.4 0.00 0.00 0.00 59 1014.3
20260506020049 17 0 0.0 0.0 0.00 0.00 0.00 60 1014.2
20260506014549 18 0 0.0 0.0 0.00 0.00 0.00 56 1014.2
20260506013047 19 0 0.0 0.0 0.00 0.00 0.00 51 1014.0
20260506011545 20 0 0.0 0.0 0.00 0.00 0.00 49 1013.9
20260506010048 21 0 0.0 0.0 0.00 0.00 0.00 45 1013.8
20260506004545 22 188 0.0 9.7 0.00 0.00 0.00 43 1013.5
20260506003042 22 0 0.0 6.4 0.00 0.00 0.00 42 1013.4
20260506001559 23 148 1.6 9.7 0.00 0.00 0.00 41 1013.3
20260506000048 23 155 3.2 12.9 0.00 0.00 0.00 40 1013.2
20260505234553 23 126 1.6 9.7 0.00 0.00 0.00 40 1013.1
20260505233054 24 211 1.6 6.4 0.00 0.00 0.00 39 1013.1
20260505231551 25 172 4.8 19.3 0.00 0.00 0.00 37 1013.2
20260505230042 25 164 8.0 22.5 0.00 0.00 0.00 36 1013.1